TimeHST,TemperatureF,Dew PointF,Humidity,Sea Level PressureIn,VisibilityMPH,Wind Direction,Wind SpeedMPH,Gust SpeedMPH,PrecipitationIn,Events,Conditions,WindDirDegrees,DateUTC
12:56 AM,70.0,70.0,100,29.84,10.0,SSW,16.1,-,N/A,,Overcast,200,2014-01-22 10:56:00
1:56 AM,70.9,70.0,97,29.82,10.0,SSW,15.0,21.9,N/A,,Overcast,210,2014-01-22 11:56:00
2:56 AM,70.9,70.0,97,29.81,10.0,SW,18.4,25.3,N/A,,Overcast,220,2014-01-22 12:56:00
3:45 AM,68.0,66.2,94,29.85,1.8,WSW,18.4,32.2,0.21,Rain,Light Rain,240,2014-01-22 13:45:00
3:48 AM,66.2,66.2,100,29.85,1.0,WSW,19.6,32.2,0.24,Rain,Light Rain,250,2014-01-22 13:48:00
3:56 AM,66.9,66.9,100,29.79,0.5,West,13.8,25.3,0.25,Fog-Rain,Light Rain,270,2014-01-22 13:56:00
4:04 AM,66.2,66.2,100,29.85,1.0,West,9.2,-,0.00,Rain,Light Rain,260,2014-01-22 14:04:00
4:08 AM,66.2,66.2,100,29.85,1.5,WSW,9.2,-,0.00,Rain,Light Rain,250,2014-01-22 14:08:00
4:12 AM,66.2,66.2,100,29.85,4.0,WSW,11.5,19.6,0.00,Rain,Light Rain,240,2014-01-22 14:12:00
4:19 AM,66.2,66.2,100,29.85,1.8,WSW,15.0,20.7,0.00,Rain,Light Rain,240,2014-01-22 14:19:00
4:28 AM,66.2,66.2,100,29.85,4.0,WSW,10.4,20.7,0.00,Rain,Light Rain,240,2014-01-22 14:28:00
4:36 AM,66.2,66.2,100,29.85,7.0,SW,17.3,21.9,0.01,Rain,Light Rain,230,2014-01-22 14:36:00
4:42 AM,66.2,66.2,100,29.86,1.8,SW,12.7,21.9,0.03,Rain,Light Rain,230,2014-01-22 14:42:00
4:56 AM,68.0,68.0,100,29.86,1.5,West,15.0,-,N/A,Rain,Light Rain,270,2014-01-22 14:56:00
5:05 AM,64.4,64.4,100,29.86,2.0,West,15.0,-,0.09,Rain,Light Rain,270,2014-01-22 15:05:00
5:10 AM,64.4,64.4,100,29.85,1.2,West,12.7,-,0.10,Rain,Light Rain,270,2014-01-22 15:10:00
5:19 AM,64.4,64.4,100,29.84,2.0,WSW,10.4,-,0.11,Rain,Light Rain,240,2014-01-22 15:19:00
5:22 AM,64.4,64.4,100,29.84,5.0,WSW,15.0,21.9,0.11,Rain,Light Rain,250,2014-01-22 15:22:00
5:30 AM,64.4,64.4,100,29.85,10.0,WSW,16.1,21.9,0.11,Rain,Light Rain,250,2014-01-22 15:30:00
5:56 AM,65.8,65.8,100,29.80,10.0,SW,11.5,-,0.11,,Overcast,230,2014-01-22 15:56:00
6:05 AM,66.2,66.2,100,29.85,10.0,SW,13.8,-,N/A,,Mostly Cloudy,230,2014-01-22 16:05:00
6:13 AM,66.2,66.2,100,29.85,10.0,SW,12.7,-,N/A,,Overcast,230,2014-01-22 16:13:00
6:29 AM,68.0,68.0,100,29.85,2.5,WSW,13.8,-,0.01,Rain,Light Rain,240,2014-01-22 16:29:00
6:31 AM,68.0,68.0,100,29.85,1.2,SW,11.5,-,0.01,Rain,Light Rain,230,2014-01-22 16:31:00
6:34 AM,68.0,68.0,100,29.84,0.8,SW,18.4,23.0,0.01,Rain,Light Rain,220,2014-01-22 16:34:00
6:46 AM,68.0,68.0,100,29.86,1.0,WNW,21.9,27.6,0.17,Rain,Rain,300,2014-01-22 16:46:00
6:56 AM,66.9,66.9,100,29.81,0.8,West,18.4,25.3,0.32,Rain,Light Rain,280,2014-01-22 16:56:00
7:03 AM,66.2,66.2,100,29.86,0.8,WNW,17.3,24.2,0.02,Rain,Light Rain,290,2014-01-22 17:03:00
7:12 AM,66.2,66.2,100,29.87,0.2,West,18.4,27.6,0.04,Fog-Rain,Light Rain,270,2014-01-22 17:12:00
7:56 AM,66.2,66.2,100,29.88,0.2,WNW,19.6,25.3,N/A,Fog-Rain,Light Rain,300,2014-01-22 17:56:00
8:01 AM,66.2,66.2,100,29.88,0.8,WNW,18.4,26.5,0.00,Rain,Light Rain,290,2014-01-22 18:01:00
8:10 AM,66.2,66.2,100,29.89,0.5,WNW,23.0,31.1,0.00,Fog-Rain,Light Rain,290,2014-01-22 18:10:00
8:20 AM,66.2,66.2,100,29.89,1.0,WNW,19.6,26.5,0.00,Rain,Light Rain,290,2014-01-22 18:20:00
8:22 AM,66.2,66.2,100,29.89,2.0,West,17.3,26.5,0.00,Rain,Light Rain,280,2014-01-22 18:22:00
8:29 AM,66.2,66.2,100,29.89,10.0,WNW,16.1,25.3,0.00,,Overcast,290,2014-01-22 18:29:00
8:43 AM,66.2,66.2,100,29.89,10.0,WNW,19.6,-,0.00,,Overcast,290,2014-01-22 18:43:00
8:56 AM,66.9,66.9,100,29.85,10.0,WNW,19.6,26.5,0.00,,Overcast,300,2014-01-22 18:56:00
9:12 AM,68.0,68.0,100,29.90,10.0,WNW,17.3,26.5,N/A,,Overcast,290,2014-01-22 19:12:00
9:39 AM,69.8,64.4,83,29.91,10.0,WNW,18.4,26.5,N/A,,Overcast,290,2014-01-22 19:39:00
9:56 AM,68.9,63.9,84,29.87,10.0,WNW,20.7,27.6,N/A,,Overcast,300,2014-01-22 19:56:00
10:38 AM,71.6,64.4,78,29.91,10.0,WNW,21.9,-,N/A,,Overcast,290,2014-01-22 20:38:00
10:56 AM,73.4,62.6,69,29.90,10.0,West,21.9,29.9,N/A,,Mostly Cloudy,280,2014-01-22 20:56:00
11:19 AM,73.4,62.6,69,29.90,10.0,WNW,20.7,29.9,N/A,,Mostly Cloudy,300,2014-01-22 21:19:00
11:56 AM,72.0,63.0,73,29.83,10.0,WNW,23.0,34.5,N/A,,Overcast,300,2014-01-22 21:56:00
12:56 PM,75.9,61.9,62,29.80,10.0,WNW,23.0,29.9,N/A,,Mostly Cloudy,290,2014-01-22 22:56:00
1:10 PM,75.2,60.8,61,29.86,10.0,WNW,23.0,29.9,N/A,,Scattered Clouds,300,2014-01-22 23:10:00
1:46 PM,73.4,59.0,61,29.85,10.0,NW,21.9,25.3,N/A,,Mostly Cloudy,320,2014-01-22 23:46:00
1:56 PM,72.0,59.9,66,29.79,10.0,NW,20.7,25.3,N/A,,Overcast,320,2014-01-22 23:56:00
2:13 PM,75.2,59.0,57,29.84,10.0,NW,16.1,28.8,N/A,,Mostly Cloudy,320,2014-01-23 00:13:00
2:56 PM,72.9,56.8,57,29.78,10.0,NW,20.7,34.5,N/A,,Mostly Cloudy,320,2014-01-23 00:56:00
3:56 PM,72.9,56.8,57,29.81,10.0,NNW,28.8,36.8,N/A,,Partly Cloudy,330,2014-01-23 01:56:00
4:56 PM,70.0,54.9,59,29.83,10.0,NNW,25.3,35.7,N/A,,Clear,340,2014-01-23 02:56:00
5:56 PM,64.9,52.9,65,29.85,10.0,NNW,20.7,29.9,N/A,,Clear,340,2014-01-23 03:56:00
6:56 PM,63.0,52.9,70,29.87,10.0,NNW,17.3,-,N/A,,Clear,340,2014-01-23 04:56:00
7:56 PM,63.0,52.9,70,29.89,10.0,NNW,15.0,21.9,N/A,,Partly Cloudy,340,2014-01-23 05:56:00
8:56 PM,63.0,52.0,67,29.91,10.0,North,12.7,-,N/A,,Clear,350,2014-01-23 06:56:00
9:56 PM,61.0,52.0,72,29.92,10.0,North,6.9,-,N/A,,Clear,10,2014-01-23 07:56:00
10:56 PM,59.9,50.9,72,29.93,10.0,North,8.1,-,N/A,,Clear,360,2014-01-23 08:56:00
11:56 PM,61.0,52.9,75,29.93,10.0,North,9.2,-,N/A,,Mostly Cloudy,360,2014-01-23 09:56:00